Regional Weather Roundup
Issued by NWS Jackson, KY

Home | Current Version | Previous Version | Text Only | Print | Product List | Glossary Off
Versions: 1 2 3 4 5 6 7 8 9 10 11 12 13 14 15 16 17 18 19 20 21 22 23 24 25 26 27

000
ASUS43 KJKL 041810
RWRJKL

EAST KENTUCKY HOURLY WEATHER ROUNDUP
NATIONAL WEATHER SERVICE JACKSON KY
200 PM EDT WED MAY 04 2016

NOTE: "FAIR" INDICATES FEW OR NO CLOUDS BELOW 12,000 FEET WITH
NO SIGNIFICANT WEATHER AND/OR OBSTRUCTIONS TO VISIBILITY.

* THESE REPORTS ARE NOT UNDER NWS QUALITY CONTROL AND MAY NOT
  REPORT WEATHER SUCH AS PRECIPITATION AND FOG.

KYZ079-080-083-085-087-088-110-112-115-119-120-041900
...EASTERN KENTUCKY...

CITY           SKY/WX    TMP DP  RH WIND       PRES   REMARKS
JACKSON        PTSUNNY   65  42  43 VRB6      29.69F
6HR MIN TEMP:  50; 6HR MAX TEMP:  65;

LONDON         PTSUNNY   65  36  34 W13       29.70F
6HR MIN TEMP:  50; 6HR MAX TEMP:  65;

SOMERSET*      CLOUDY    61  41  48 W14       29.72F
MONTICELLO*    LGT RAIN  63  46  54 W18       29.73F
6HR MIN TEMP:  50; 6HR MAX TEMP:  66; 6HR PCP: TRACE;

WILLIAMSBURG*  PTCLDY    61  34  36 SW7       29.71F
MIDDLESBORO*   CLOUDY    63  39  41 SW3       29.73F
6HR MIN TEMP:  53; 6HR MAX TEMP:  64;

HARLAN APT*    MOCLDY    63  36  36 S7        29.72F
HAZARD APT*    MOCLDY    64  41  42 W13       29.70F
BLACK MTN*       N/A     52  41  66 S6          N/A
PIKE CO APT*   CLOUDY    60  43  54 S5        29.71F
BIG SANDY APT* CLOUDY    62  43  49 SW6       29.70F
6HR MIN TEMP:  50; 6HR MAX TEMP:  63;

MOREHEAD APT*  LGT RAIN  57  45  62 W6G14     29.70S
$$

KYZ035-036-041-042-044-050-067-078-099-041900
...CENTRAL KENTUCKY...

CITY           SKY/WX    TMP DP  RH WIND       PRES   REMARKS
MT STERLING*   RAIN      55  45  67 NW8       29.71S
FLEMING/MASON* CLOUDY    57  44  61 NW10      29.70S
DANVILLE*      RAIN      54  48  82 W12G21    29.74R
RICHMOND*      CLOUDY    59  41  51 SW10      29.70S
LEXINGTON      RAIN      53  50  89 W7        29.72R FOG
6HR MIN TEMP:  49; 6HR MAX TEMP:  63; 6HR PCP:  0.03;

FRANKFORT      LGT RAIN  54  49  83 SW6       29.68F
6HR MIN TEMP:  49; 6HR MAX TEMP:  60; 6HR PCP:  0.14;

LOUISVILLE     LGT RAIN  55  51  86 W9        29.71S
6HR MIN TEMP:  53; 6HR MAX TEMP:  59; 6HR PCP:  0.23;

LEBANON*       LGT RAIN  54  52  94 S12       29.72F
BOWLING GREEN  PTSUNNY   59  53  80 SW7       29.73F
6HR MIN TEMP:  50; 6HR MAX TEMP:  64; 6HR PCP:  0.11;

$$

KYZ091>093-OHZ055-061-077-WVZ005-015-034-035-042-041900
...SOUTHERN OHIO/WEST VIRGINIA...

CITY           SKY/WX    TMP DP  RH WIND       PRES   REMARKS
COVINGTON      LGT RAIN  53  48  83 SW6       29.67F
COLUMBUS       CLOUDY    60  41  49 SW17G29   29.62F
DAYTON         LGT RAIN  51  47  86 W9        29.65S
WILMINGTON     LGT RAIN  51  46  83 SW15      29.67F
HUNTINGTON     LGT RAIN  61  45  55 S10       29.66F
CHARLESTON     PTSUNNY   62  41  46 VRB5      29.67F
PINEVILLE*       N/A     58  41  53 MISG      29.76F
BECKLEY        CLOUDY    53  42  66 SW14G20   29.71F
$$

VAZ002-007-008-TNZ017-027-036-066-071-041900
...SOUTHWEST VIRGINIA/EAST TENNESSEE...

CITY           SKY/WX    TMP DP  RH WIND       PRES   REMARKS
WISE*          CLOUDY    57  32  38 W7        29.75F
BRISTOL        PTSUNNY   62  41  46 SW9       29.74F
MORRISTOWN*    MOCLDY    63  39  42 W6G13     29.74F
SEVIERVILLE*   MOCLDY    63  39  42 W5        29.75F
KNOXVILLE      PTSUNNY   63  41  44 SW9       29.75F
OAK RIDGE      PTSUNNY   67  40  37 SW7       29.75F
CROSSVILLE     SUNNY     64  40  41 W7G17     29.76F
NASHVILLE      CLOUDY    68  44  42 W7G20     29.72F
$$

...KEY TO REMARKS...
VSB - VISIBILITY IN MILES
WCI - WIND CHILL INDEX
HX  - HEAT INDEX

$$




USA.gov is the U.S. government's official web portal to all federal, state and local government web resources and services.